Tracking 19847 objects as of 17-Sep-2019
HD Live streaming from Space Station
objects crossing your sky now

SL-8 DEB *

Track SL-8 DEB * now!
10-day predictions


NORAD ID: 3931
Int'l Code: 1965-020EV
Perigee: 1,379.3 km
Apogee: 1,689.7 km
Inclination: 56.1 °
Period: 116.6 minutes
Semi major axis: 7905 km
RCS: 0.0346 m2 (small)
Launch date: March 15, 1965
Source: Commonwealth of Independent States (former USSR) (CIS)
Launch site: TYURATAM MISSILE AND SPACE COMPLEX (TTMTR)

Note: This is SATELLITE DEBRIS
aabbcc
Your satellite tracking list
Your tracking list is empty




NASA's NSSDC Master Catalog

Two Line Element Set (TLE):
1  3931U 65020EV  19259.04222889 -.00000019  00000-0  55139-3 0  9997
2  3931  56.0601 218.1364 0196283  91.1161 342.6649 12.35121888473174
Source of the keplerian elements: AFSPC